Wind_Speed
23 25 26 26 26 26 26 27 28 27 27 27 26 25 24 23 23 23 23 23 23 23 23 24 24 24 25 25 25 26 27 26 26 27 27 28 29 30
21 22 22 23 24 24 25 26 27 27 26 25 25 24 23 23 23 24 23 23 22 22 22 22 22 22 22 23 22 23 24 24 25 26 26 26 27 27
19 19 20 20 21 22 22 22 23 24 24 24 24 24 23 23 23 23 23 23 21 20 19 19 19 19 19 20 21 21 22 23 23 24 24 25 25 26
18 18 18 18 18 18 19 20 20 20 21 21 21 22 21 21 21 20 20 19 19 17 16 16 17 17 18 18 19 20 20 20 21 21 22 23 23 24
15 16 16 17 16 16 16 16 17 17 17 18 18 19 19 18 17 16 15 15 16 15 15 15 16 16 17 17 18 18 18 19 19 20 20 21 22 23
13 13 14 14 14 14 14 14 15 15 15 16 17 17 16 16 15 14 13 13 14 14 15 15 15 15 16 16 17 17 17 17 18 18 19 20 22 23
10 10 11 11 10 10 11 11 12 12 12 13 13 14 14 14 14 13 12 12 12 14 15 15 15 15 15 16 15 16 16 17 18 18 20 20 21 21
9 9 9 8 8 8 8 8 9 10 10 10 11 11 11 12 11 11 11 11 11 12 12 13 13 14 14 14 15 15 16 16 17 17 18 18 18 19
6 6 5 5 5 5 5 6 6 7 9 9 9 9 9 10 10 10 10 10 10 10 11 12 12 12 12 13 13 14 14 14 15 16 16 17 17 18
4 3 2 2 2 2 3 4 4 5 7 7 7 8 8 8 8 8 8 9 10 10 10 10 11 11 11 12 12 12 13 13 14 14 15 16 17 18
3 2 1 1 1 1 2 3 4 4 5 5 5 5 6 7 7 7 7 8 8 8 8 8 9 9 10 11 11 11 12 13 14 14 15 16 17 18
3 2 1 1 1 1 2 3 3 4 4 4 3 3 4 4 5 5 5 6 6 6 6 6 7 8 8 9 9 10 11 12 13 15 16 17 19 20
4 3 3 3 3 4 4 4 4 4 4 3 3 3 2 1 1 2 2 3 3 3 4 5 6 6 6 7 8 9 11 13 14 16 18 19 21 23
5 5 5 5 5 5 5 4 5 4 4 3 3 2 1 1 1 1 1 1 1 2 3 4 5 5 6 7 9 11 13 14 16 17 19 21 22 24
6 6 6 7 7 7 6 6 6 5 4 4 3 2 2 2 2 2 2 1 2 3 3 4 4 6 8 9 11 13 14 15 17 19 21 22 24 25
8 8 8 8 7 7 7 6 6 5 4 4 3 3 3 3 3 3 3 3 3 3 4 5 7 8 10 11 13 14 16 17 19 21 22 24 25 27
8 8 8 8 8 8 7 7 7 6 5 5 4 4 4 4 3 3 3 3 4 5 6 7 8 9 11 13 15 16 18 19 21 23 24 25 27 28
7 7 7 6 6 6 6 5 5 4 4 4 4 4 4 3 3 3 4 5 6 7 8 9 10 11 13 15 18 19 20 22 23 24 26 27 28 29
7 6 5 5 4 4 4 4 4 3 3 3 3 3 3 4 4 4 6 7 8 9 10 12 13 15 16 17 19 21 22 23 24 25 27 29 30 31
6 5 5 4 3 3 3 3 3 3 3 3 3 3 3 4 5 6 7 8 9 11 12 14 16 17 18 19 19 21 23 24 25 27 29 30 31 32
4 4 4 3 3 2 2 2 2 3 3 3 3 4 5 6 7 8 9 11 12 13 14 16 17 19 20 21 22 23 24 26 27 29 30 32 33 34
3 2 2 2 2 2 3 3 3 3 3 4 5 6 7 8 9 10 11 13 14 15 16 17 19 20 22 23 24 25 26 27 29 31 33 34 36 36
1 2 2 3 3 4 4 4 3 4 5 6 7 9 9 10 11 12 14 15 16 17 18 19 21 22 24 25 26 27 29 30 31 32 34 36 37 37
Wind_Direction
268 265 262 261 260 259 257 257 257 256 256 257 258 260 260 259 260 261 264 266 268 269 267 267 266 264 264 263 264 265 264 264 265 265 265 267 268 267
269 267 265 263 260 259 257 257 257 256 254 252 253 255 256 258 260 263 264 266 266 267 267 264 262 261 262 262 263 267 266 266 266 265 266 266 268 270
271 269 266 264 263 260 258 258 258 256 251 249 251 252 256 258 261 265 265 264 265 264 262 261 260 262 262 265 266 269 269 268 267 268 270 272 272 272
274 270 266 265 262 260 258 257 257 255 251 248 249 251 253 255 258 262 263 262 263 262 260 260 259 259 261 266 267 269 270 270 270 271 272 273 273 275
275 270 266 262 260 261 259 255 253 252 250 248 248 249 251 253 257 260 261 261 260 257 257 260 260 260 262 265 269 272 272 271 271 272 273 274 274 275
276 271 267 263 261 259 256 254 251 251 251 248 248 247 247 248 252 256 260 261 259 257 258 259 260 263 265 267 269 271 272 274 274 275 276 277 278 278
280 275 270 264 258 258 255 250 247 247 247 245 244 243 244 246 250 255 259 263 262 259 260 260 262 264 268 269 270 273 275 278 279 280 280 281 282 283
283 282 273 264 259 260 253 243 240 241 239 239 239 237 239 243 247 252 259 264 264 262 262 264 267 268 268 271 272 274 278 282 284 285 286 287 288 289
282 277 265 257 255 251 235 226 226 228 225 229 229 228 234 237 240 248 256 261 264 265 264 268 271 270 272 273 275 279 282 284 287 291 294 295 294 294
302 288 265 240 223 203 203 212 215 215 217 223 224 227 234 234 239 246 256 263 267 268 267 270 272 271 272 278 280 282 285 289 294 296 297 298 298 297
336 326 302 211 208 189 198 207 203 197 196 203 213 220 225 228 232 240 255 261 265 266 269 271 272 274 278 282 285 288 293 296 298 299 300 300 301 302
11 20 42 163 162 163 159 163 162 161 168 177 184 193 208 224 236 252 265 265 266 269 269 272 276 281 286 292 296 295 297 301 304 305 306 307 307 307
45 59 80 92 99 102 114 131 140 143 145 145 150 157 169 200 248 266 271 276 279 280 275 280 287 292 300 305 306 304 306 307 309 310 310 311 310 309
70 85 97 103 104 103 106 114 123 125 123 122 125 126 125 98 52 37 348 330 327 327 321 314 311 313 314 316 315 314 312 312 312 313 314 314 313 312
83 93 96 100 99 99 102 106 106 108 109 103 94 87 73 59 54 50 45 35 19 359 348 338 333 331 327 325 323 320 319 318 319 319 318 318 317 316
86 90 92 96 98 97 97 100 100 100 96 85 76 75 70 63 57 56 49 31 11 354 342 335 333 331 328 326 325 324 323 322 321 320 319 318 319 319
87 88 90 92 95 94 92 89 90 90 83 77 80 80 77 70 61 46 33 19 2 350 342 336 334 332 330 328 327 326 325 324 323 322 322 322 322 321
83 86 89 92 90 88 85 83 83 84 82 77 75 69 64 58 45 27 9 355 346 340 335 332 331 329 327 326 324 323 323 322 323 323 324 324 323 321
82 83 84 87 88 85 83 82 74 69 63 54 50 50 47 36 21 2 351 345 338 332 330 327 324 323 322 322 321 321 322 323 323 324 324 323 323 322
83 82 81 78 80 82 78 68 57 45 44 49 43 28 9 358 349 340 337 335 331 329 327 325 322 321 322 323 323 322 323 323 324 324 324 324 324 324
73 71 68 64 63 48 32 23 18 16 13 8 358 345 335 333 332 328 325 326 327 325 324 324 324 323 324 324 325 325 324 323 323 324 324 324 324 324
67 59 47 37 26 9 354 341 336 333 326 323 325 323 321 319 319 321 322 321 321 322 322 323 324 324 324 324 324 324 324 323 323 324 324 324 324 324
11 357 349 344 340 336 332 329 323 317 313 313 315 317 317 316 318 319 320 320 320 320 321 321 320 321 321 322 322 322 322 322 322 322 323 324 324 324
Height
5762 5762 5762 5763 5764 5765 5766 5768 5770 5771 5773 5774 5774 5775 5776 5777 5778 5778 5778 5778 5778 5777 5777 5777 5777 5777 5777 5778 5778 5777 5777 5777 5777 5777 5777 5777 5776 5776
5755 5755 5755 5756 5756 5757 5758 5760 5761 5763 5765 5766 5766 5767 5768 5769 5770 5771 5771 5770 5770 5770 5770 5770 5770 5770 5771 5771 5771 5771 5771 5771 5770 5770 5770 5769 5769 5768
5749 5749 5749 5749 5749 5750 5751 5752 5753 5754 5756 5758 5759 5760 5761 5762 5763 5763 5764 5764 5764 5763 5763 5764 5764 5764 5764 5765 5765 5765 5765 5764 5764 5764 5763 5763 5762 5761
5743 5743 5743 5743 5743 5743 5744 5745 5746 5747 5749 5751 5752 5753 5755 5756 5757 5757 5757 5757 5758 5758 5758 5759 5759 5759 5760 5760 5760 5759 5759 5758 5758 5757 5757 5756 5755 5754
5738 5737 5737 5737 5737 5738 5738 5739 5740 5741 5742 5744 5746 5747 5749 5750 5752 5752 5752 5752 5753 5753 5754 5754 5754 5755 5755 5755 5755 5754 5754 5753 5752 5751 5750 5750 5749 5747
5733 5733 5732 5732 5732 5732 5733 5733 5734 5736 5737 5739 5741 5742 5744 5746 5747 5748 5748 5749 5749 5749 5750 5750 5750 5750 5750 5750 5750 5749 5749 5748 5747 5746 5745 5744 5743 5741
5729 5729 5728 5728 5728 5728 5728 5729 5730 5731 5733 5735 5737 5738 5740 5742 5743 5744 5745 5745 5745 5745 5746 5746 5746 5746 5746 5746 5745 5745 5744 5743 5742 5741 5740 5738 5737 5735
5727 5726 5726 5726 5726 5726 5725 5726 5727 5728 5730 5732 5733 5735 5737 5738 5739 5740 5741 5742 5742 5742 5742 5742 5742 5742 5742 5741 5741 5740 5739 5738 5737 5736 5735 5733 5731 5730
5725 5724 5724 5723 5724 5724 5724 5724 5725 5726 5728 5729 5731 5732 5734 5735 5736 5737 5738 5738 5738 5738 5738 5738 5738 5738 5738 5737 5737 5736 5735 5734 5733 5732 5730 5728 5726 5724
5723 5723 5723 5723 5723 5723 5723 5723 5724 5725 5726 5727 5729 5730 5731 5732 5733 5735 5735 5735 5735 5735 5735 5735 5735 5735 5734 5734 5733 5732 5731 5730 5729 5727 5726 5724 5722 5719
5723 5722 5722 5722 5722 5722 5722 5723 5724 5724 5725 5726 5727 5728 5729 5730 5731 5732 5733 5733 5733 5733 5732 5732 5732 5732 5731 5731 5730 5729 5728 5727 5725 5723 5721 5719 5717 5714
5722 5722 5721 5721 5722 5722 5722 5723 5724 5724 5725 5726 5727 5727 5728 5729 5730 5730 5731 5731 5731 5730 5730 5730 5730 5729 5729 5728 5727 5726 5724 5723 5721 5719 5717 5714 5712 5709
5723 5722 5722 5722 5722 5722 5723 5724 5724 5725 5726 5726 5727 5728 5728 5729 5729 5729 5729 5729 5729 5729 5729 5728 5728 5727 5726 5725 5724 5723 5721 5719 5717 5715 5712 5709 5706 5703
5724 5724 5723 5724 5724 5724 5725 5725 5726 5727 5727 5728 5728 5728 5729 5729 5728 5728 5728 5728 5728 5728 5727 5726 5726 5725 5724 5723 5722 5720 5718 5715 5713 5710 5707 5704 5700 5697
5725 5725 5725 5726 5726 5726 5727 5727 5728 5728 5728 5729 5729 5729 5729 5729 5728 5728 5727 5727 5727 5726 5726 5725 5724 5723 5722 5720 5718 5716 5714 5711 5709 5705 5702 5698 5695 5690
5728 5728 5728 5728 5729 5729 5729 5730 5730 5730 5730 5730 5730 5730 5729 5729 5728 5728 5728 5727 5727 5726 5725 5723 5722 5721 5719 5717 5715 5713 5710 5707 5704 5701 5697 5693 5689 5684
5731 5731 5731 5731 5732 5732 5732 5732 5732 5732 5732 5731 5731 5730 5730 5730 5729 5729 5728 5727 5726 5725 5724 5722 5721 5719 5717 5715 5712 5710 5706 5703 5700 5696 5692 5687 5683 5678
5734 5734 5734 5734 5734 5734 5734 5734 5734 5733 5733 5733 5732 5731 5731 5730 5730 5729 5728 5727 5726 5724 5723 5721 5719 5717 5715 5712 5709 5706 5702 5699 5695 5690 5685 5681 5677 5672
5737 5737 5736 5736 5736 5736 5736 5736 5735 5735 5734 5733 5733 5732 5732 5731 5730 5729 5727 5726 5724 5723 5721 5719 5717 5714 5712 5709 5706 5701 5697 5693 5689 5685 5680 5675 5670 5665
5739 5739 5739 5738 5738 5738 5737 5737 5736 5736 5735 5734 5733 5733 5732 5731 5729 5728 5726 5725 5723 5721 5719 5716 5713 5710 5707 5705 5701 5698 5693 5688 5684 5679 5674 5669 5663 5657
5741 5741 5740 5740 5739 5739 5738 5738 5737 5736 5735 5735 5734 5733 5732 5730 5729 5727 5725 5723 5721 5718 5716 5713 5710 5706 5703 5700 5696 5693 5688 5683 5678 5673 5667 5662 5656 5650
5742 5742 5741 5741 5740 5739 5739 5738 5737 5736 5735 5734 5733 5732 5731 5729 5727 5725 5723 5721 5718 5715 5713 5710 5706 5703 5699 5695 5691 5687 5683 5677 5672 5666 5660 5654 5648 5642
5743 5743 5742 5741 5740 5739 5738 5737 5737 5736 5735 5733 5732 5730 5729 5727 5725 5722 5720 5717 5715 5712 5709 5706 5702 5698 5694 5690 5686 5681 5676 5671 5665 5660 5654 5646 5640 5633